• In Germany
  • List of Countries
  • For 7 days
  • Water Temperature
  • Satellite Maps
  • Weather Map
  • Weather Widgets
  • user-avatar
    Login

    Hourly Weather Gribovo

    Today, 24 September, Monday

    Time Temperature Precipitation Wind Pressure Humidity
    00:00 +7°C° 0 mm 2 mps 736 mmHg 92%
    01:00 +6°C° 0 mm 2 mps 736 mmHg 94%
    02:00 +7°C° 0 mm 1 mps 736 mmHg 97%
    03:00 +6°C° 0 mm 2 mps 736 mmHg 97%
    04:00 +6°C° 0 mm 2 mps 735 mmHg 97%
    05:00 +6°C° 0 mm 2 mps 735 mmHg 96%
    06:00 +7°C° 0.2 mm 2 mps 735 mmHg 95%
    07:00 +7°C° 0.2 mm 3 mps 735 mmHg 93%
    08:00 +8°C° 0 mm 3 mps 734 mmHg 91%
    09:00 +8°C° 1.3 mm 3 mps 734 mmHg 92%
    10:00 +8°C° 1.3 mm 3 mps 733 mmHg 92%
    11:00 +7°C° 1.3 mm 4 mps 732 mmHg 92%
    12:00 +7°C° 1.8 mm 4 mps 731 mmHg 92%
    13:00 +7°C° 1.8 mm 4 mps 730 mmHg 92%
    14:00 +7°C° 1.8 mm 5 mps 729 mmHg 92%
    15:00 +6°C° 2.9 mm 5 mps 728 mmHg 93%
    16:00 +6°C° 2.9 mm 5 mps 727 mmHg 94%
    17:00 +6°C° 2.9 mm 5 mps 726 mmHg 95%
    18:00 +6°C° 3 mm 5 mps 726 mmHg 95%
    19:00 +6°C° 3 mm 5 mps 725 mmHg 95%
    20:00 +6°C° 3 mm 5 mps 725 mmHg 95%
    21:00 +5°C° 1.6 mm 6 mps 725 mmHg 94%
    22:00 +5°C° 1.6 mm 6 mps 726 mmHg 93%
    23:00 +5°C° 1.6 mm 6 mps 726 mmHg 93%

    Tomorrow, 25 September, Tuesday

    Time Temperature Precipitation Wind Pressure Humidity
    00:00 +5°C° 1 mm 7 mps 727 mmHg 92%
    01:00 +5°C° 1 mm 7 mps 727 mmHg 91%
    02:00 +5°C° 1 mm 7 mps 728 mmHg 91%
    03:00 +5°C° 0.4 mm 7 mps 729 mmHg 90%
    04:00 +4°C° 0.4 mm 7 mps 729 mmHg 90%
    05:00 +4°C° 0.4 mm 7 mps 730 mmHg 89%
    06:00 +4°C° 0.2 mm 7 mps 731 mmHg 89%
    07:00 +4°C° 0.2 mm 7 mps 732 mmHg 88%
    08:00 +4°C° 0.2 mm 6 mps 733 mmHg 88%
    09:00 +4°C° 0.1 mm 6 mps 734 mmHg 86%
    10:00 +5°C° 0.1 mm 6 mps 734 mmHg 85%
    11:00 +5°C° 0.1 mm 6 mps 735 mmHg 83%
    12:00 +5°C° 0 mm 6 mps 736 mmHg 80%
    13:00 +7°C° 0 mm 6 mps 737 mmHg 76%
    14:00 +7°C° 0 mm 6 mps 738 mmHg 73%
    15:00 +7°C° 0 mm 5 mps 738 mmHg 73%
    16:00 +6°C° 0 mm 5 mps 739 mmHg 73%
    17:00 +6°C° 0 mm 4 mps 740 mmHg 73%
    18:00 +5°C° 0 mm 4 mps 740 mmHg 74%
    19:00 +5°C° 0 mm 5 mps 741 mmHg 76%
    20:00 +3°C° 0 mm 5 mps 742 mmHg 77%
    21:00 +4°C° 0 mm 4 mps 743 mmHg 77%
    22:00 +3°C° 0 mm 4 mps 743 mmHg 76%
    23:00 +3°C° 0 mm 4 mps 744 mmHg 76%

    Day after tomorrow, 26 September, Wednesday

    Time Temperature Precipitation Wind Pressure Humidity
    00:00 +1°C° 0 mm 4 mps 744 mmHg 76%
    01:00 +1°C° 0 mm 4 mps 745 mmHg 76%
    02:00 +1°C° 0 mm 3 mps 745 mmHg 76%
    03:00 +1°C° 0 mm 3 mps 746 mmHg 78%
    04:00 0°C° 0 mm 3 mps 746 mmHg 80%
    05:00 0°C° 0 mm 3 mps 747 mmHg 82%
    06:00 +1°C° 0 mm 3 mps 747 mmHg 80%
    07:00 +2°C° 0 mm 3 mps 747 mmHg 78%
    08:00 +3°C° 0 mm 3 mps 748 mmHg 76%
    09:00 +4°C° 0 mm 3 mps 748 mmHg 72%
    10:00 +6°C° 0 mm 4 mps 747 mmHg 67%
    11:00 +8°C° 0 mm 4 mps 747 mmHg 62%
    12:00 +10°C° 0 mm 4 mps 747 mmHg 59%
    13:00 +10°C° 0 mm 5 mps 746 mmHg 56%
    14:00 +10°C° 0 mm 5 mps 746 mmHg 53%
    15:00 +9°C° 0 mm 5 mps 745 mmHg 57%
    16:00 +9°C° 0 mm 5 mps 744 mmHg 61%
    17:00 +8°C° 0 mm 5 mps 743 mmHg 65%
    18:00 +7°C° 0.4 mm 6 mps 743 mmHg 72%
    19:00 +7°C° 0.4 mm 6 mps 742 mmHg 78%
    20:00 +5°C° 0.4 mm 7 mps 741 mmHg 85%
    21:00 +5°C° 1.4 mm 7 mps 740 mmHg 87%
    22:00 +5°C° 1.4 mm 8 mps 739 mmHg 88%
    23:00 +4°C° 1.4 mm 8 mps 737 mmHg 90%

    27 September, Thursday

    Time Temperature Precipitation Wind Pressure Humidity
    00:00 +5°C° 1.1 mm 8 mps 737 mmHg 90%
    01:00 +5°C° 1.1 mm 7 mps 736 mmHg 91%
    02:00 +5°C° 1.1 mm 7 mps 735 mmHg 91%
    03:00 +7°C° 0.7 mm 6 mps 735 mmHg 92%
    04:00 +7°C° 0.7 mm 6 mps 735 mmHg 93%
    05:00 +7°C° 0.7 mm 5 mps 735 mmHg 93%
    06:00 +7°C° 0.2 mm 5 mps 735 mmHg 92%
    07:00 +7°C° 0.2 mm 5 mps 735 mmHg 92%
    08:00 +7°C° 0.2 mm 4 mps 735 mmHg 91%
    09:00 +8°C° 0 mm 4 mps 735 mmHg 86%
    10:00 +8°C° 0 mm 5 mps 735 mmHg 81%
    11:00 +9°C° 0 mm 5 mps 736 mmHg 76%
    12:00 +9°C° 0 mm 5 mps 735 mmHg 74%
    13:00 +9°C° 0 mm 5 mps 735 mmHg 72%
    14:00 +9°C° 0 mm 5 mps 735 mmHg 70%
    15:00 +8°C° 0 mm 4 mps 736 mmHg 73%
    16:00 +8°C° 0 mm 4 mps 736 mmHg 76%
    17:00 +8°C° 0 mm 3 mps 736 mmHg 79%
    18:00 +8°C° 0 mm 3 mps 736 mmHg 82%
    19:00 +7°C° 0 mm 3 mps 736 mmHg 84%
    20:00 +7°C° 0 mm 3 mps 737 mmHg 87%
    21:00 +7°C° 0 mm 3 mps 736 mmHg 88%
    22:00 +7°C° 0 mm 3 mps 736 mmHg 88%
    23:00 +7°C° 0 mm 3 mps 736 mmHg 89%

    28 September, Friday

    Time Temperature Precipitation Wind Pressure Humidity
    00:00 +7°C° 0 mm 3 mps 736 mmHg 89%
    01:00 +7°C° 0 mm 3 mps 735 mmHg 89%
    02:00 +7°C° 0 mm 3 mps 735 mmHg 89%
    03:00 +7°C° 0.4 mm 3 mps 734 mmHg 91%
    04:00 +8°C° 0.4 mm 3 mps 734 mmHg 93%
    05:00 +8°C° 0.4 mm 3 mps 733 mmHg 95%
    06:00 +8°C° 2.5 mm 3 mps 733 mmHg 95%
    07:00 +8°C° 2.5 mm 3 mps 732 mmHg 96%
    08:00 +8°C° 2.5 mm 3 mps 732 mmHg 96%
    09:00 +8°C° 0.6 mm 3 mps 732 mmHg 93%
    10:00 +8°C° 0.6 mm 3 mps 733 mmHg 90%
    11:00 +8°C° 0.6 mm 3 mps 734 mmHg 87%
    12:00 +9°C° 0 mm 3 mps 735 mmHg 81%
    13:00 +10°C° 0 mm 4 mps 735 mmHg 74%
    14:00 +11°C° 0 mm 4 mps 736 mmHg 67%
    15:00 +10°C° 0 mm 3 mps 736 mmHg 70%
    16:00 +9°C° 0 mm 2 mps 737 mmHg 74%
    17:00 +8°C° 0 mm 2 mps 737 mmHg 77%
    18:00 +8°C° 0 mm 1 mps 738 mmHg 81%
    19:00 +7°C° 0 mm 1 mps 738 mmHg 84%
    20:00 +5°C° 0 mm 1 mps 739 mmHg 88%
    21:00 +5°C° 0 mm 1 mps 739 mmHg 89%
    22:00 +5°C° 0 mm 1 mps 739 mmHg 89%
    23:00 +3°C° 0 mm 0 mps 739 mmHg 90%

    29 September, Saturday

    Time Temperature Precipitation Wind Pressure Humidity
    00:00 +4°C° 0 mm 1 mps 739 mmHg 89%
    01:00 +4°C° 0 mm 1 mps 740 mmHg 88%
    02:00 +5°C° 0 mm 1 mps 740 mmHg 88%
    03:00 +4°C° 0.7 mm 2 mps 740 mmHg 88%
    04:00 +4°C° 0.7 mm 2 mps 740 mmHg 88%
    05:00 +4°C° 0.7 mm 2 mps 741 mmHg 88%
    06:00 +3°C° 0.7 mm 3 mps 741 mmHg 88%
    07:00 +3°C° 0.7 mm 3 mps 741 mmHg 88%
    08:00 +3°C° 0.7 mm 3 mps 742 mmHg 87%
    09:00 +3°C° 0.1 mm 3 mps 742 mmHg 84%
    10:00 +4°C° 0.1 mm 3 mps 743 mmHg 80%
    11:00 +4°C° 0.1 mm 3 mps 743 mmHg 77%
    12:00 +5°C° 0 mm 3 mps 743 mmHg 73%
    13:00 +6°C° 0 mm 2 mps 744 mmHg 70%
    14:00 +7°C° 0 mm 2 mps 744 mmHg 66%
    15:00 +6°C° 0 mm 2 mps 744 mmHg 70%
    16:00 +6°C° 0 mm 2 mps 745 mmHg 75%
    17:00 +6°C° 0 mm 1 mps 745 mmHg 80%
    18:00 +5°C° 0 mm 1 mps 746 mmHg 83%
    19:00 +4°C° 0 mm 1 mps 746 mmHg 87%
    20:00 +3°C° 0 mm 1 mps 747 mmHg 90%
    21:00 +3°C° 0 mm 1 mps 747 mmHg 90%
    22:00 +3°C° 0 mm 1 mps 747 mmHg 90%
    23:00 +2°C° 0 mm 1 mps 747 mmHg 90%
    Show more